THY2TK LTFM-LOWG

Flight info

Callsign THY2TK
Flight time 2h 4m
Altitude 28000
Route VADEN L610 UTEKA/N0448F340 DCT KOTUS DCT BABIT DCT DIMLO DCT GBG GBG2M
Aircraft B738/M-SDE2E3FGHIRWXY/LB1

Departure

Time 2026-04-26 06:10
Airport İstanbul Airport (LTFM)

Arrival

Time 2026-04-26 08:14
Airport Graz Airport (LOWG)
Time Latitude Longitude Altitude Speed Heading
2026-04-26 05:57 41.25976 28.73562 333 ft 0 kts 107°
2026-04-26 06:04 41.25982 28.73533 329 ft 4 kts 103°
2026-04-26 06:04 41.25987 28.73498 329 ft 4 kts 94°
2026-04-26 06:04 41.25986 28.73463 329 ft 4 kts 71°
2026-04-26 06:04 41.25974 28.73441 328 ft 2 kts 18°
2026-04-26 06:05 41.25973 28.73441 328 ft 1 kts 17°
2026-04-26 06:06 41.25975 28.73442 328 ft 1 kts 17°
2026-04-26 06:06 41.25996 28.73450 329 ft 5 kts 17°
2026-04-26 06:07 41.26040 28.73468 331 ft 8 kts 17°
2026-04-26 06:07 41.26105 28.73495 332 ft 11 kts 17°
2026-04-26 06:07 41.26185 28.73502 330 ft 12 kts 320°
2026-04-26 06:07 41.26215 28.73403 331 ft 12 kts 276°
2026-04-26 06:08 41.26216 28.73294 333 ft 12 kts 271°
2026-04-26 06:08 41.26216 28.73159 333 ft 18 kts 269°
2026-04-26 06:08 41.26215 28.72959 333 ft 25 kts 269°
2026-04-26 06:08 41.26210 28.72711 333 ft 20 kts 268°
2026-04-26 06:09 41.26208 28.72570 333 ft 8 kts 271°
2026-04-26 06:09 41.26247 28.72527 331 ft 8 kts 342°
2026-04-26 06:09 41.26300 28.72520 332 ft 8 kts
2026-04-26 06:09 41.26497 28.72515 332 ft 64 kts 359°
2026-04-26 06:10 41.26918 28.72509 331 ft 113 kts 359°
2026-04-26 06:10 41.27902 28.72487 337 ft 171 kts 359°
2026-04-26 06:10 41.29157 28.72484 1003 ft 179 kts
2026-04-26 06:10 41.30425 28.72522 1874 ft 185 kts
2026-04-26 06:11 41.31725 28.72539 2707 ft 191 kts
2026-04-26 06:11 41.33079 28.72570 3522 ft 197 kts
2026-04-26 06:11 41.34484 28.72613 4088 ft 209 kts
2026-04-26 06:11 41.35985 28.72645 4503 ft 220 kts 358°
2026-04-26 06:12 41.37521 28.72312 4927 ft 230 kts 340°
2026-04-26 06:12 41.38919 28.71240 5416 ft 236 kts 317°
2026-04-26 06:12 41.39922 28.69467 5908 ft 243 kts 300°
2026-04-26 06:12 41.40840 28.67453 6232 ft 266 kts 300°
2026-04-26 06:13 41.41777 28.65355 7132 ft 261 kts 300°
2026-04-26 06:13 41.42725 28.63231 7708 ft 271 kts 300°
2026-04-26 06:13 41.43686 28.61060 8470 ft 273 kts 298°
2026-04-26 06:13 41.44607 28.58850 9457 ft 273 kts 298°
2026-04-26 06:14 41.45535 28.56637 10311 ft 276 kts 298°
2026-04-26 06:14 41.46522 28.54329 10613 ft 300 kts 299°
2026-04-26 06:14 41.47611 28.51826 10807 ft 324 kts 299°
2026-04-26 06:14 41.48791 28.49150 11137 ft 342 kts 300°
2026-04-26 06:15 41.50022 28.46386 11752 ft 350 kts 300°
2026-04-26 06:15 41.51274 28.43585 12489 ft 353 kts 300°
2026-04-26 06:15 41.52542 28.40754 13210 ft 358 kts 300°
2026-04-26 06:15 41.53831 28.37876 13905 ft 363 kts 300°
2026-04-26 06:16 41.55134 28.34965 14539 ft 367 kts 300°
2026-04-26 06:16 41.56450 28.32023 15215 ft 370 kts 300°
2026-04-26 06:16 41.57772 28.29058 15881 ft 374 kts 300°
2026-04-26 06:16 41.59022 28.26000 16528 ft 377 kts 297°
2026-04-26 06:17 41.60191 28.22886 17158 ft 381 kts 296°
2026-04-26 06:17 41.61383 28.19647 17783 ft 386 kts 296°
2026-04-26 06:17 41.62576 28.16415 18384 ft 390 kts 296°
2026-04-26 06:17 41.63772 28.13208 18911 ft 393 kts 296°
2026-04-26 06:18 41.65006 28.09924 19456 ft 396 kts 297°
2026-04-26 06:18 41.66253 28.06614 19981 ft 400 kts 297°
2026-04-26 06:18 41.67511 28.03278 20518 ft 403 kts 297°
2026-04-26 06:18 41.68912 28.00010 21029 ft 407 kts 302°
2026-04-26 06:19 41.70447 27.96811 21548 ft 410 kts 303°
2026-04-26 06:19 41.72035 27.93625 22062 ft 413 kts 304°
2026-04-26 06:19 41.73629 27.90437 22538 ft 417 kts 304°
2026-04-26 06:19 41.75249 27.87171 23034 ft 420 kts 303°
2026-04-26 06:20 41.76858 27.83890 23524 ft 423 kts 303°
2026-04-26 06:20 41.78465 27.80582 23938 ft 425 kts 303°
2026-04-26 06:20 41.80078 27.77245 24374 ft 427 kts 303°
2026-04-26 06:20 41.81687 27.73900 24814 ft 428 kts 303°
2026-04-26 06:21 41.83303 27.70536 25237 ft 430 kts 303°
2026-04-26 06:21 41.84922 27.67159 25665 ft 431 kts 303°
2026-04-26 06:21 41.86543 27.63774 26083 ft 432 kts 303°
2026-04-26 06:21 41.88173 27.60369 26470 ft 434 kts 303°
2026-04-26 06:22 41.89805 27.56955 26854 ft 436 kts 303°
2026-04-26 06:22 41.91445 27.53522 27231 ft 437 kts 303°
2026-04-26 06:22 41.93088 27.50077 27609 ft 439 kts 303°
2026-04-26 06:22 41.94736 27.46618 27976 ft 440 kts 303°
2026-04-26 06:23 41.96387 27.43150 28334 ft 442 kts 303°
2026-04-26 06:23 41.98044 27.39664 28678 ft 443 kts 303°
2026-04-26 06:23 41.99680 27.36220 29124 ft 442 kts 303°
2026-04-26 06:23 42.01351 27.32696 29680 ft 439 kts 303°
2026-04-26 06:24 42.02961 27.29297 30220 ft 435 kts 303°
2026-04-26 06:24 42.04582 27.25873 30620 ft 434 kts 303°
2026-04-26 06:24 42.06202 27.22449 30952 ft 434 kts 303°
2026-04-26 06:24 42.07781 27.18976 31293 ft 434 kts 301°
2026-04-26 06:25 42.09273 27.15451 31711 ft 432 kts 300°
2026-04-26 06:25 42.10720 27.11920 32100 ft 430 kts 299°
2026-04-26 06:25 42.12151 27.08390 32455 ft 430 kts 299°
2026-04-26 06:25 42.13584 27.04859 32814 ft 429 kts 300°
2026-04-26 06:26 42.15020 27.01333 33161 ft 428 kts 300°
2026-04-26 06:26 42.16457 26.97822 33403 ft 430 kts 300°
2026-04-26 06:26 42.17912 26.94275 33497 ft 435 kts 300°
2026-04-26 06:26 42.19385 26.90691 33626 ft 438 kts 300°
2026-04-26 06:27 42.20864 26.87090 33843 ft 439 kts 300°
2026-04-26 06:27 42.22342 26.83491 34004 ft 440 kts 300°
2026-04-26 06:27 42.23823 26.79880 33998 ft 439 kts 300°
2026-04-26 06:28 42.26762 26.72700 33998 ft 436 kts 300°
2026-04-26 06:28 42.29536 26.65907 33993 ft 435 kts 300°
2026-04-26 06:29 42.32449 26.58757 33991 ft 434 kts 300°
2026-04-26 06:29 42.35350 26.51618 33997 ft 433 kts 299°
2026-04-26 06:30 42.38244 26.44480 33997 ft 433 kts 299°
2026-04-26 06:30 42.41131 26.37340 33992 ft 433 kts 299°
2026-04-26 06:31 42.44021 26.30177 33992 ft 433 kts 299°
2026-04-26 06:31 42.46907 26.23004 33994 ft 434 kts 299°
2026-04-26 06:32 42.49792 26.15816 33993 ft 434 kts 299°
2026-04-26 06:32 42.52672 26.08624 33992 ft 434 kts 299°
2026-04-26 06:33 42.55548 26.01422 33996 ft 434 kts 299°
2026-04-26 06:33 42.58416 25.94224 33994 ft 433 kts 298°
2026-04-26 06:34 42.61276 25.87028 33995 ft 433 kts 298°
2026-04-26 06:34 42.64125 25.79840 33983 ft 432 kts 298°
2026-04-26 06:35 42.66966 25.72657 34000 ft 431 kts 298°
2026-04-26 06:35 42.69780 25.65523 33993 ft 431 kts 298°
2026-04-26 06:36 42.72604 25.58347 34004 ft 430 kts 298°
2026-04-26 06:36 42.75426 25.51157 33997 ft 430 kts 298°
2026-04-26 06:37 42.78239 25.43971 33998 ft 430 kts 298°
2026-04-26 06:37 42.81049 25.36777 34001 ft 430 kts 298°
2026-04-26 06:38 42.83851 25.29584 34002 ft 430 kts 298°
2026-04-26 06:38 42.86647 25.22388 33984 ft 429 kts 298°
2026-04-26 06:39 42.89436 25.15193 34000 ft 429 kts 297°
2026-04-26 06:39 42.92221 25.07990 33984 ft 429 kts 297°
2026-04-26 06:40 42.94998 25.00789 33998 ft 428 kts 297°
2026-04-26 06:40 42.97767 24.93590 33992 ft 428 kts 297°
2026-04-26 06:41 43.00529 24.86393 33990 ft 428 kts 297°
2026-04-26 06:41 43.03282 24.79200 33985 ft 427 kts 297°
2026-04-26 06:42 43.06031 24.71998 33980 ft 427 kts 297°
2026-04-26 06:42 43.08756 24.64842 33983 ft 427 kts 297°
2026-04-26 06:43 43.11492 24.57640 33989 ft 426 kts 297°
2026-04-26 06:43 43.14224 24.50429 33989 ft 426 kts 297°
2026-04-26 06:44 43.16949 24.43217 33988 ft 426 kts 296°
2026-04-26 06:44 43.19669 24.36001 33986 ft 426 kts 296°
2026-04-26 06:45 43.22383 24.28784 33983 ft 426 kts 296°
2026-04-26 06:45 43.25091 24.21563 33992 ft 425 kts 296°
2026-04-26 06:46 43.27793 24.14338 33992 ft 425 kts 296°
2026-04-26 06:46 43.30488 24.07115 33989 ft 425 kts 296°
2026-04-26 06:47 43.33176 23.99892 33986 ft 424 kts 296°
2026-04-26 06:47 43.35855 23.92673 33991 ft 424 kts 296°
2026-04-26 06:48 43.38530 23.85450 33995 ft 424 kts 296°
2026-04-26 06:48 43.41200 23.78219 34001 ft 423 kts 296°
2026-04-26 06:49 43.43858 23.71000 33995 ft 423 kts 296°
2026-04-26 06:49 43.46497 23.63816 33994 ft 423 kts 296°
2026-04-26 06:50 43.49146 23.56587 34002 ft 423 kts 296°
2026-04-26 06:50 43.51788 23.49359 34004 ft 423 kts 295°
2026-04-26 06:51 43.54427 23.42119 34006 ft 422 kts 295°
2026-04-26 06:51 43.58370 23.31265 34005 ft 422 kts 295°
2026-04-26 06:52 43.60991 23.24027 34004 ft 422 kts 295°
2026-04-26 06:52 43.63605 23.16789 34009 ft 421 kts 295°
2026-04-26 06:53 43.66214 23.09549 34013 ft 421 kts 295°
2026-04-26 06:53 43.68813 23.02315 34012 ft 420 kts 295°
2026-04-26 06:54 43.71406 22.95079 34017 ft 420 kts 295°
2026-04-26 06:54 43.73992 22.87844 34014 ft 419 kts 295°
2026-04-26 06:55 43.76569 22.80614 34020 ft 419 kts 294°
2026-04-26 06:55 43.79139 22.73385 34022 ft 418 kts 294°
2026-04-26 06:56 43.81702 22.66158 34028 ft 418 kts 294°
2026-04-26 06:56 43.83826 22.60152 34026 ft 418 kts 294°
2026-04-26 06:57 43.86375 22.52928 34029 ft 417 kts 294°
2026-04-26 06:57 43.88920 22.45701 34036 ft 417 kts 294°
2026-04-26 06:58 43.91614 22.38582 34033 ft 418 kts 301°
2026-04-26 06:58 43.95256 22.32253 34038 ft 421 kts 307°
2026-04-26 06:59 43.99016 22.26033 34043 ft 420 kts 307°
2026-04-26 06:59 44.02759 22.19790 34037 ft 420 kts 306°
2026-04-26 07:00 44.06484 22.13526 34039 ft 421 kts 306°
2026-04-26 07:00 44.10203 22.07244 34041 ft 420 kts 306°
2026-04-26 07:01 44.13916 22.00957 34037 ft 420 kts 306°
2026-04-26 07:01 44.17619 21.94672 34036 ft 419 kts 306°
2026-04-26 07:02 44.21292 21.88424 34035 ft 420 kts 306°
2026-04-26 07:02 44.24988 21.82125 34044 ft 420 kts 307°
2026-04-26 07:03 44.28687 21.75806 34047 ft 421 kts 307°
2026-04-26 07:03 44.32389 21.69468 34046 ft 422 kts 307°
2026-04-26 07:04 44.36098 21.63104 34045 ft 423 kts 307°
2026-04-26 07:04 44.39814 21.56713 34045 ft 424 kts 307°
2026-04-26 07:05 44.43548 21.50278 34060 ft 428 kts 308°
2026-04-26 07:05 44.47309 21.43782 34066 ft 431 kts 308°
2026-04-26 07:06 44.51090 21.37237 34064 ft 433 kts 308°
2026-04-26 07:06 44.54883 21.30656 34062 ft 435 kts 308°
2026-04-26 07:07 44.58682 21.24048 34063 ft 436 kts 309°
2026-04-26 07:07 44.62483 21.17422 34060 ft 436 kts 309°
2026-04-26 07:08 44.66280 21.10788 34062 ft 436 kts 309°
2026-04-26 07:08 44.70047 21.04191 34060 ft 435 kts 309°
2026-04-26 07:09 44.73835 20.97543 34058 ft 435 kts 309°
2026-04-26 07:09 44.77615 20.90891 34061 ft 435 kts 309°
2026-04-26 07:11 44.87055 20.74214 34064 ft 435 kts 309°
2026-04-26 07:11 44.90821 20.67533 34061 ft 435 kts 309°
2026-04-26 07:12 44.94583 20.60843 34072 ft 435 kts 309°
2026-04-26 07:12 44.98339 20.54149 34049 ft 435 kts 309°
2026-04-26 07:13 45.02087 20.47454 34051 ft 434 kts 309°
2026-04-26 07:13 45.05830 20.40752 34050 ft 434 kts 309°
2026-04-26 07:14 45.09564 20.34049 34052 ft 433 kts 309°
2026-04-26 07:14 45.13265 20.27390 34050 ft 433 kts 309°
2026-04-26 07:15 45.16987 20.20677 34060 ft 433 kts 309°
2026-04-26 07:15 45.20706 20.13953 34057 ft 433 kts 309°
2026-04-26 07:16 45.24419 20.07226 34053 ft 433 kts 309°
2026-04-26 07:16 45.28127 20.00491 34059 ft 433 kts 309°
2026-04-26 07:17 45.31831 19.93759 34061 ft 433 kts 309°
2026-04-26 07:17 45.35736 19.87256 34063 ft 432 kts 312°
2026-04-26 07:18 45.39741 19.80872 34063 ft 432 kts 312°
2026-04-26 07:18 45.43731 19.74468 34064 ft 433 kts 312°
2026-04-26 07:19 45.47706 19.68021 34062 ft 433 kts 312°
2026-04-26 07:19 45.51670 19.61558 34066 ft 433 kts 312°
2026-04-26 07:20 45.55632 19.55079 34064 ft 433 kts 312°
2026-04-26 07:20 45.59589 19.48594 34067 ft 434 kts 312°
2026-04-26 07:21 45.63548 19.42092 34063 ft 434 kts 312°
2026-04-26 07:21 45.67511 19.35570 34064 ft 434 kts 312°
2026-04-26 07:22 45.71443 19.29081 34065 ft 434 kts 312°
2026-04-26 07:22 45.75397 19.22541 34066 ft 435 kts 312°
2026-04-26 07:23 45.79349 19.15989 34067 ft 435 kts 312°
2026-04-26 07:23 45.83301 19.09422 34067 ft 435 kts 312°
2026-04-26 07:24 45.87251 19.02842 34070 ft 435 kts 312°
2026-04-26 07:24 45.91203 18.96246 34073 ft 435 kts 311°
2026-04-26 07:25 45.94540 18.88992 34069 ft 439 kts 296°
2026-04-26 07:25 45.97031 18.80968 34069 ft 440 kts 296°
2026-04-26 07:26 45.99495 18.72915 34070 ft 440 kts 296°
2026-04-26 07:26 46.01982 18.64864 34072 ft 440 kts 296°
2026-04-26 07:27 46.04468 18.56851 34074 ft 441 kts 296°
2026-04-26 07:27 46.06967 18.48793 34077 ft 441 kts 296°
2026-04-26 07:28 46.09460 18.40725 34077 ft 441 kts 296°
2026-04-26 07:28 46.11947 18.32652 34073 ft 441 kts 296°
2026-04-26 07:29 46.14427 18.24575 34076 ft 441 kts 296°
2026-04-26 07:29 46.16901 18.16490 34081 ft 441 kts 296°
2026-04-26 07:30 46.19372 18.08388 34079 ft 441 kts 296°
2026-04-26 07:30 46.21837 18.00282 34085 ft 441 kts 296°
2026-04-26 07:31 46.24293 17.92177 34091 ft 440 kts 296°
2026-04-26 07:31 46.25521 17.88116 33807 ft 443 kts 295°
2026-04-26 07:31 46.26745 17.84059 33369 ft 437 kts 296°
2026-04-26 07:31 46.27949 17.80060 32923 ft 431 kts 296°
2026-04-26 07:32 46.29123 17.76157 32425 ft 426 kts 296°
2026-04-26 07:32 46.30296 17.72251 31955 ft 421 kts 296°
2026-04-26 07:32 46.31442 17.68429 31497 ft 418 kts 296°
2026-04-26 07:32 46.32593 17.64585 31021 ft 414 kts 296°
2026-04-26 07:33 46.33730 17.60782 30568 ft 410 kts 296°
2026-04-26 07:33 46.34860 17.57000 30108 ft 407 kts 296°
2026-04-26 07:33 46.35977 17.53252 29569 ft 404 kts 296°
2026-04-26 07:33 46.37081 17.49543 29099 ft 399 kts 296°
2026-04-26 07:34 46.38172 17.45874 28632 ft 394 kts 296°
2026-04-26 07:34 46.39251 17.42239 28170 ft 390 kts 296°
2026-04-26 07:34 46.40288 17.38737 27716 ft 387 kts 296°
2026-04-26 07:34 46.41292 17.35345 27277 ft 383 kts 296°
2026-04-26 07:35 46.42338 17.31809 26831 ft 380 kts 296°
2026-04-26 07:35 46.43373 17.28301 26384 ft 377 kts 296°
2026-04-26 07:35 46.44399 17.24822 25951 ft 374 kts 296°
2026-04-26 07:35 46.45417 17.21364 25513 ft 371 kts 296°
2026-04-26 07:36 46.46428 17.17924 25082 ft 369 kts 296°
2026-04-26 07:36 46.47430 17.14509 24655 ft 367 kts 296°
2026-04-26 07:36 46.48423 17.11120 24224 ft 364 kts 296°
2026-04-26 07:36 46.49400 17.07783 23800 ft 363 kts 296°
2026-04-26 07:37 46.50383 17.04423 23315 ft 361 kts 296°
2026-04-26 07:37 46.51359 17.01079 22847 ft 358 kts 296°
2026-04-26 07:37 46.52325 16.97762 22410 ft 355 kts 296°
2026-04-26 07:37 46.53282 16.94478 21974 ft 352 kts 296°
2026-04-26 07:38 46.54229 16.91220 21552 ft 349 kts 296°
2026-04-26 07:38 46.55169 16.87983 21129 ft 347 kts 296°
2026-04-26 07:38 46.56100 16.84770 20709 ft 344 kts 296°
2026-04-26 07:38 46.57023 16.81581 20303 ft 341 kts 296°
2026-04-26 07:39 46.57940 16.78412 19898 ft 339 kts 295°
2026-04-26 07:39 46.58852 16.75255 19484 ft 337 kts 295°
2026-04-26 07:39 46.59754 16.72128 19085 ft 335 kts 295°
2026-04-26 07:39 46.60652 16.69012 18683 ft 333 kts 295°
2026-04-26 07:40 46.61545 16.65908 18269 ft 332 kts 295°
2026-04-26 07:40 46.62432 16.62822 17827 ft 330 kts 295°
2026-04-26 07:40 46.63313 16.59752 17417 ft 327 kts 295°
2026-04-26 07:40 46.64183 16.56715 17015 ft 324 kts 295°
2026-04-26 07:41 46.65046 16.53700 16629 ft 321 kts 295°
2026-04-26 07:41 46.65903 16.50707 16222 ft 319 kts 295°
2026-04-26 07:41 46.66751 16.47738 15842 ft 316 kts 295°
2026-04-26 07:41 46.67593 16.44787 15457 ft 314 kts 294°
2026-04-26 07:42 46.68422 16.41905 15089 ft 312 kts 295°
2026-04-26 07:42 46.69320 16.39075 14842 ft 305 kts 297°
2026-04-26 07:42 46.70243 16.36295 14497 ft 303 kts 297°
2026-04-26 07:42 46.71167 16.33539 14139 ft 302 kts 297°
2026-04-26 07:43 46.72088 16.30785 13747 ft 301 kts 297°
2026-04-26 07:43 46.72988 16.28082 13349 ft 300 kts 297°
2026-04-26 07:43 46.73894 16.25347 12962 ft 299 kts 297°
2026-04-26 07:43 46.74790 16.22632 12603 ft 296 kts 297°
2026-04-26 07:44 46.75680 16.19933 12224 ft 294 kts 297°
2026-04-26 07:44 46.76563 16.17247 11848 ft 293 kts 297°
2026-04-26 07:44 46.77441 16.14576 11475 ft 291 kts 297°
2026-04-26 07:44 46.78311 16.11918 11118 ft 289 kts 297°
2026-04-26 07:45 46.79175 16.09278 10748 ft 288 kts 297°
2026-04-26 07:45 46.80030 16.06663 10581 ft 280 kts 297°
2026-04-26 07:45 46.80858 16.04128 10387 ft 274 kts 297°
2026-04-26 07:45 46.81668 16.01645 10247 ft 266 kts 297°
2026-04-26 07:46 46.82189 16.00047 10164 ft 261 kts 297°
2026-04-26 07:46 46.82958 15.97687 10029 ft 253 kts 297°
2026-04-26 07:46 46.83709 15.95384 9768 ft 251 kts 297°
2026-04-26 07:46 46.84452 15.93099 9537 ft 247 kts 297°
2026-04-26 07:47 46.85189 15.90835 9268 ft 246 kts 297°
2026-04-26 07:47 46.85921 15.88580 8989 ft 245 kts 297°
2026-04-26 07:47 46.86648 15.86340 8722 ft 244 kts 297°
2026-04-26 07:47 46.87372 15.84105 8416 ft 244 kts 297°
2026-04-26 07:48 46.88097 15.81869 8216 ft 240 kts 297°
2026-04-26 07:48 46.88792 15.79674 8197 ft 238 kts 292°
2026-04-26 07:48 46.89010 15.77242 7898 ft 247 kts 268°
2026-04-26 07:48 46.88523 15.74823 7662 ft 253 kts 247°
2026-04-26 07:49 46.87457 15.72793 7474 ft 259 kts 225°
2026-04-26 07:49 46.85922 15.71327 7279 ft 261 kts 222°
2026-04-26 07:49 46.84794 15.69385 6951 ft 255 kts 238°
2026-04-26 07:50 46.81773 15.66419 6269 ft 265 kts 221°
2026-04-26 07:50 46.80447 15.64553 6049 ft 260 kts 234°
2026-04-26 07:50 46.79409 15.62425 6004 ft 256 kts 241°
2026-04-26 07:50 46.78515 15.60247 5972 ft 244 kts 244°
2026-04-26 07:51 46.77728 15.58163 5988 ft 233 kts 246°
2026-04-26 07:51 46.77050 15.56080 5992 ft 220 kts 250°
2026-04-26 07:51 46.76691 15.53997 5977 ft 205 kts 274°
2026-04-26 07:51 46.77023 15.52039 6007 ft 200 kts 299°
2026-04-26 07:52 46.77902 15.50459 6018 ft 204 kts 321°
2026-04-26 07:52 46.79187 15.49491 5996 ft 213 kts 343°
2026-04-26 07:52 46.80641 15.49034 5991 ft 214 kts 345°
2026-04-26 07:52 46.82100 15.48630 5990 ft 215 kts 352°
2026-04-26 07:53 46.83598 15.48930 5997 ft 224 kts 19°
2026-04-26 07:53 46.84872 15.50278 5951 ft 234 kts 49°
2026-04-26 07:53 46.85537 15.52458 5980 ft 244 kts 80°
2026-04-26 07:53 46.85306 15.54910 5984 ft 248 kts 115°
2026-04-26 07:54 46.84173 15.56758 5983 ft 247 kts 152°
2026-04-26 07:54 46.82570 15.57495 6011 ft 239 kts 171°
2026-04-26 07:54 46.80920 15.57995 6022 ft 244 kts 171°
2026-04-26 07:54 46.79245 15.58497 5998 ft 245 kts 171°
2026-04-26 07:55 46.77575 15.58994 6008 ft 245 kts 171°
2026-04-26 07:55 46.75899 15.59501 5992 ft 247 kts 171°
2026-04-26 07:55 46.74219 15.60016 5994 ft 247 kts 171°
2026-04-26 07:55 46.72539 15.60533 6005 ft 247 kts 170°
2026-04-26 07:56 46.70859 15.61053 6014 ft 246 kts 171°
2026-04-26 07:56 46.69183 15.61568 6024 ft 246 kts 171°
2026-04-26 07:56 46.67523 15.62074 6013 ft 246 kts 171°
2026-04-26 07:56 46.65855 15.62585 6015 ft 244 kts 174°
2026-04-26 07:57 46.64205 15.62415 6007 ft 236 kts 207°
2026-04-26 07:57 46.62915 15.61060 5975 ft 228 kts 238°
2026-04-26 07:57 46.62347 15.59003 6006 ft 217 kts 268°
2026-04-26 07:57 46.62538 15.56884 6034 ft 213 kts 293°
2026-04-26 07:58 46.63381 15.55114 6041 ft 216 kts 317°
2026-04-26 07:58 46.64692 15.54030 6027 ft 218 kts 340°
2026-04-26 07:58 46.66177 15.53474 6000 ft 222 kts 345°
2026-04-26 07:58 46.67693 15.53023 6018 ft 222 kts 347°
2026-04-26 07:59 46.69219 15.52572 5999 ft 224 kts 347°
2026-04-26 07:59 46.70748 15.52131 6002 ft 223 kts 348°
2026-04-26 07:59 46.72269 15.51694 6014 ft 222 kts 345°
2026-04-26 07:59 46.73762 15.51210 5994 ft 217 kts 345°
2026-04-26 08:00 46.75235 15.50743 5996 ft 216 kts 343°
2026-04-26 08:00 46.76700 15.50271 6020 ft 216 kts 346°
2026-04-26 08:00 46.78161 15.49832 6009 ft 219 kts 346°
2026-04-26 08:00 46.79648 15.49378 6028 ft 218 kts 345°
2026-04-26 08:01 46.81135 15.48918 6028 ft 218 kts 345°
2026-04-26 08:01 46.82637 15.48585 6021 ft 221 kts
2026-04-26 08:01 46.84117 15.49230 6043 ft 228 kts 26°
2026-04-26 08:01 46.85272 15.50855 6028 ft 235 kts 56°
2026-04-26 08:02 46.85775 15.53152 6016 ft 245 kts 87°
2026-04-26 08:02 46.85401 15.55566 6004 ft 247 kts 121°
2026-04-26 08:02 46.84214 15.57300 6008 ft 244 kts 154°
2026-04-26 08:02 46.82637 15.58122 6011 ft 241 kts 169°
2026-04-26 08:03 46.81005 15.58639 6011 ft 239 kts 171°
2026-04-26 08:03 46.79374 15.59107 6015 ft 239 kts 172°
2026-04-26 08:03 46.77715 15.59585 6021 ft 246 kts 172°
2026-04-26 08:03 46.76031 15.60080 5996 ft 248 kts 171°
2026-04-26 08:04 46.74345 15.60587 6004 ft 247 kts 171°
2026-04-26 08:04 46.72664 15.61096 6005 ft 247 kts 171°
2026-04-26 08:04 46.70991 15.61612 5835 ft 244 kts 170°
2026-04-26 08:04 46.69346 15.62118 5703 ft 240 kts 170°
2026-04-26 08:05 46.67733 15.62620 5504 ft 241 kts 170°
2026-04-26 08:05 46.66091 15.63115 5364 ft 239 kts 173°
2026-04-26 08:05 46.64441 15.63363 5114 ft 240 kts 187°
2026-04-26 08:05 46.62889 15.62602 4887 ft 235 kts 219°
2026-04-26 08:06 46.61848 15.60824 4570 ft 232 kts 250°
2026-04-26 08:06 46.61527 15.58566 4351 ft 228 kts 271°
2026-04-26 08:06 46.61879 15.56354 4077 ft 228 kts 301°
2026-04-26 08:06 46.62971 15.54809 4065 ft 215 kts 331°
2026-04-26 08:07 46.64350 15.54108 4112 ft 209 kts 347°
2026-04-26 08:07 46.65755 15.53655 4165 ft 213 kts 347°
2026-04-26 08:07 46.67203 15.53227 4180 ft 215 kts 348°
2026-04-26 08:07 46.68696 15.52809 4174 ft 222 kts 346°
2026-04-26 08:08 46.70212 15.52342 4168 ft 222 kts 347°
2026-04-26 08:08 46.71718 15.51910 4188 ft 219 kts 348°
2026-04-26 08:08 46.73207 15.51450 4179 ft 218 kts 345°
2026-04-26 08:08 46.74661 15.50937 4195 ft 213 kts 346°
2026-04-26 08:09 46.76067 15.50443 4248 ft 202 kts 346°
2026-04-26 08:09 46.77419 15.50037 4275 ft 197 kts 347°
2026-04-26 08:09 46.78762 15.49614 4253 ft 196 kts 347°
2026-04-26 08:09 46.80080 15.49226 4262 ft 192 kts 347°
2026-04-26 08:10 46.81383 15.48855 4263 ft 191 kts 347°
2026-04-26 08:10 46.82705 15.48489 4109 ft 193 kts 347°
2026-04-26 08:10 46.84015 15.48126 3840 ft 186 kts 350°
2026-04-26 08:10 46.85270 15.47784 3557 ft 179 kts 347°
2026-04-26 08:11 46.86453 15.47393 3376 ft 171 kts 351°
2026-04-26 08:11 46.87616 15.47185 3069 ft 163 kts 348°
2026-04-26 08:11 46.88646 15.46865 2944 ft 145 kts 345°
2026-04-26 08:11 46.89601 15.46565 2766 ft 142 kts 351°
2026-04-26 08:12 46.90623 15.46302 2533 ft 149 kts 350°
2026-04-26 08:12 46.91635 15.46026 2355 ft 146 kts 350°
2026-04-26 08:12 46.92652 15.45744 2155 ft 151 kts 350°
2026-04-26 08:12 46.93666 15.45464 1951 ft 144 kts 349°
2026-04-26 08:13 46.94609 15.45203 1768 ft 136 kts 350°
2026-04-26 08:13 46.95536 15.44955 1572 ft 135 kts 351°
2026-04-26 08:13 46.96448 15.44725 1367 ft 131 kts 348°
2026-04-26 08:13 46.97347 15.44455 1225 ft 134 kts 349°
2026-04-26 08:14 46.98274 15.44184 1097 ft 129 kts 348°
2026-04-26 08:14 46.98948 15.44006 1101 ft 68 kts 349°
2026-04-26 08:14 46.99218 15.43942 1106 ft 21 kts 12°
2026-04-26 08:14 46.99328 15.44078 1110 ft 21 kts 47°
2026-04-26 08:15 46.99425 15.44228 1108 ft 19 kts 46°
2026-04-26 08:15 46.99546 15.44244 1106 ft 18 kts 349°
2026-04-26 08:15 46.99659 15.44213 1106 ft 14 kts 349°
2026-04-26 08:15 46.99741 15.44190 1110 ft 12 kts 349°
2026-04-26 08:16 46.99808 15.44226 1111 ft 10 kts 67°
2026-04-26 08:16 46.99795 15.44265 1113 ft 4 kts 159°
2026-04-26 08:16 46.99767 15.44273 1111 ft 4 kts 168°
2026-04-26 08:16 46.99735 15.44282 1109 ft 5 kts 169°
2026-04-26 08:17 46.99726 15.44285 1111 ft 0 kts 169°